EUTELSAT 5 WEST B

Last updated on July 6, 2021, 3:31 p.m. UTC

1 44624U 19067A   21187.07658312 -.00000032  00000-0  00000+0 0  9999
2 44624   0.0695 345.3671 0006759 125.5427 195.9322  1.00273086  6334
UTC
Height (km)
Latitude
Longitude
Inclination
Orbital Period
UTC large
Height (km)
Speed (km/s)
/
Latitude / Longitude
Inclination (degrees)
Orbital Period (minutes)
Azimuth
Elevation
Range (km)
Doppler Factor
iOS Compass Heading
iOS Angle

Next 30 passes for location: Hong Kong

Rise time Rise Azimuth (degrees) Set time Set Azimuth (degrees) Duration Max altitude (degrees)

No matching passes for this satellites